Location: Unspecified
(0.0000°N, 0.0000°E)
Time: 16:32:27
(UTC+00:00)

N. Korean satellite - Pass Details

Date: 22 January 2020
Orbit: 456 x 505 km, 97.2° (Epoch: 24 February)

Event Time Altitude Azimuth Distance (km) Brightness Sun altitude
Rises 05:37:22 0° 2° (N) 2,545 10.0 -8.0°
Reaches altitude 10° 05:39:27 10° 357° (N) 1,675 9.1 -7.5°
Maximum altitude 05:42:57 51° 281° (W) 629 6.8 -6.7°
Drops below altitude 10° 05:46:32 10° 204° (SSW) 1,705 9.3 -5.8°
Sets 05:48:40 0° 199° (SSW) 2,596 10.3 -5.3°
